N8PFF Weather Reports


time (UTC)temp
C
wind
direction
speed
KPH
gust
KPH
rain 1hr
cm
rain 24hr
cm
rain mn
cm
humidity
%
barometer
mb
20260502163054 7 278 6.4 16.1 0.00 0.28 0.03 60 1018.2
20260502161602 7 267 9.7 19.3 0.00 0.28 0.03 59 1018.3
20260502151548 8 313 3.2 19.3 0.00 0.36 0.03 57 1018.1
20260502123107 3 293 3.2 11.3 0.00 0.38 0.03 83 1017.9
20260502121511 3 326 1.6 6.4 0.00 0.38 0.03 93 1018.0
20260502114548 3 283 0.0 1.6 0.00 0.38 0.03 97 1018.0
20260502113052 2 51 0.0 0.0 0.00 0.38 0.03 98 1018.1
20260502111602 2 51 0.0 0.0 0.00 0.38 0.03 98 1018.0
20260502110026 0 51 0.0 0.0 0.00 0.38 0.03 97 1017.9
20260502104541 0 51 0.0 0.0 0.00 0.38 0.03 97 1017.8
20260502103056 0 51 0.0 0.0 0.00 0.38 0.03 97 1017.8
20260502101634 1 51 0.0 0.0 0.00 0.38 0.03 97 1017.6
20260502071528 3 38 0.0 0.0 0.00 0.38 0.03 95 1017.2
20260502070044 3 38 0.0 0.0 0.03 0.38 0.03 95 1017.4
20260502064544 3 38 0.0 0.0 0.03 0.38 0.03 96 1017.6
20260502063003 3 38 0.0 0.0 0.03 0.38 0.03 95 1017.6
20260502061514 3 103 0.0 1.6 0.03 0.38 0.03 96 1017.7
20260502060031 3 140 0.0 0.0 0.00 0.36 0.00 95 1017.9
20260502054550 3 140 0.0 0.0 0.00 0.36 0.00 95 1017.9
20260502053003 3 140 0.0 0.0 0.00 0.36 0.00 94 1017.9
20260502051522 3 140 0.0 0.0 0.00 0.36 0.00 94 1017.8
20260502050016 4 140 0.0 0.0 0.00 0.36 0.00 93 1018.0
20260502044520 5 140 0.0 0.0 0.00 0.36 0.00 93 1018.1
20260502043042 5 140 0.0 0.0 0.00 0.36 0.00 93 1018.0
20260502041544 5 140 0.0 0.0 0.00 0.36 0.00 92 1018.3
20260502040048 5 140 0.0 0.0 0.00 0.36 0.00 92 1018.3
20260502034551 5 140 0.0 0.0 0.00 0.36 0.36 92 1018.2
20260502033009 5 140 0.0 0.0 0.00 0.36 0.36 92 1018.1
20260502031544 5 140 0.0 0.0 0.00 0.36 0.36 91 1018.1
20260502030100 5 140 0.0 0.0 0.00 0.36 0.36 91 1018.0
20260502024534 5 140 0.0 0.0 0.00 0.36 0.36 90 1017.8
20260502023031 5 140 0.0 0.0 0.00 0.36 0.36 90 1017.8
20260502021543 5 140 0.0 0.0 0.00 0.36 0.36 89 1017.8
20260502020052 5 140 0.0 0.0 0.00 0.36 0.36 89 1017.8
20260502014609 5 140 0.0 0.0 0.00 0.36 0.36 88 1017.7
20260502013010 5 140 0.0 0.0 0.00 0.36 0.36 88 1017.3
20260502011527 5 140 0.0 0.0 0.00 0.36 0.36 88 1016.9
20260502010038 5 140 0.0 0.0 0.00 0.36 0.36 86 1016.8
20260502004611 6 140 0.0 0.0 0.00 0.36 0.36 83 1016.9
20260502003009 6 140 0.0 1.6 0.00 0.36 0.36 81 1017.0
20260502001529 7 304 1.6 6.4 0.00 0.36 0.36 79 1016.7
20260502000046 7 28 0.0 14.5 0.00 0.36 0.36 78 1016.3
20260501234559 7 291 6.4 12.9 0.00 0.36 0.36 77 1015.9
20260501233019 8 311 3.2 12.9 0.00 0.36 0.36 74 1015.7
20260501231539 8 297 3.2 22.5 0.00 0.36 0.36 75 1015.5
20260501230049 8 297 3.2 17.7 0.00 0.36 0.36 78 1015.6
20260501224512 8 287 3.2 14.5 0.00 0.36 0.36 80 1015.5
20260501223033 8 280 4.8 11.3 0.00 0.36 0.36 80 1015.4
20260501221537 8 323 6.4 19.3 0.00 0.36 0.36 79 1015.4
20260501220013 8 276 6.4 16.1 0.00 0.36 0.36 79 1015.3
20260501214519 8 289 8.0 24.1 0.00 0.36 0.36 79 1015.0
20260501213045 8 316 8.0 24.1 0.00 0.36 0.36 78 1014.6
20260501211557 9 302 6.4 20.9 0.00 0.36 0.36 79 1014.0
20260501210007 10 334 9.7 27.4 0.00 0.36 0.36 78 1013.5
20260501204518 10 293 9.7 25.7 0.00 0.36 0.36 79 1013.4
20260501203040 11 295 9.7 27.4 0.00 0.36 0.36 79 1013.1
20260501201546 11 283 6.4 12.9 0.00 0.36 0.36 85 1012.9
20260501200051 10 321 1.6 9.7 0.00 0.36 0.36 88 1012.9
20260501194602 11 176 3.2 16.1 0.00 0.36 0.36 85 1012.9
20260501193000 11 293 3.2 12.9 0.00 0.36 0.36 89 1012.6
20260501191525 10 207 4.8 12.9 0.03 0.36 0.36 89 1013.1
20260501190033 10 265 3.2 14.5 0.03 0.36 0.36 89 1013.1
20260501184557 9 238 3.2 14.5 0.03 0.36 0.36 90 1013.0
20260501183059 9 150 3.2 8.0 0.03 0.36 0.36 91 1013.0
20260501181504 8 155 0.0 4.8 0.05 0.33 0.33 92 1013.0
20260501180026 8 141 0.0 8.0 0.08 0.33 0.33 92 1012.8
20260501174540 8 222 0.0 4.8 0.13 0.33 0.33 92 1012.8
20260501173115 8 153 0.0 4.8 0.18 0.33 0.33 92 1012.8
20260501171508 8 163 0.0 0.0 0.15 0.28 0.28 93 1013.1